| time (UTC) | temp F | wind direction | speed MPH | gust MPH | rain 1hr in | rain 24hr in | rain mn in | humidity % | barometer mb |
| 20260831225543 | 98 | 211 | 3.0 | 9.0 | 0.00 | 0.00 | 0.00 | 39 | 1013.4 |
| 20260831225040 | 98 | 236 | 3.0 | 9.0 | 0.00 | 0.00 | 0.00 | 39 | 1013.4 |
| 20260831224637 | 98 | 175 | 2.0 | 10.0 | 0.00 | 0.00 | 0.00 | 39 | 1013.3 |
| 20260831224040 | 98 | 0 | 3.0 | 10.0 | 0.00 | 0.00 | 0.00 | 38 | 1013.3 |
| 20260831223543 | 99 | 213 | 0.0 | 10.0 | 0.00 | 0.00 | 0.00 | 39 | 1013.3 |
| 20260831223102 | 99 | 232 | 3.0 | 10.0 | 0.00 | 0.00 | 0.00 | 38 | 1013.5 |
| 20260831222540 | 99 | 205 | 1.0 | 11.0 | 0.00 | 0.00 | 0.00 | 38 | 1013.4 |
| 20260831222040 | 99 | 213 | 3.0 | 11.0 | 0.00 | 0.00 | 0.00 | 38 | 1013.4 |
| 20260831221614 | 99 | 198 | 2.0 | 8.0 | 0.00 | 0.00 | 0.00 | 38 | 1013.4 |
| 20260831221040 | 100 | 200 | 3.0 | 8.0 | 0.00 | 0.00 | 0.00 | 38 | 1013.4 |
| 20260831220544 | 100 | 225 | 2.0 | 9.0 | 0.00 | 0.00 | 0.00 | 38 | 1013.5 |
| 20260831220101 | 100 | 143 | 1.0 | 11.0 | 0.00 | 0.00 | 0.00 | 38 | 1013.4 |
| 20260831215540 | 101 | 273 | 4.0 | 11.0 | 0.00 | 0.00 | 0.00 | 36 | 1013.4 |
| 20260831215039 | 100 | 0 | 1.0 | 9.0 | 0.00 | 0.00 | 0.00 | 36 | 1013.4 |
| 20260831214552 | 100 | 202 | 2.0 | 10.0 | 0.00 | 0.00 | 0.00 | 37 | 1013.4 |
| 20260831214044 | 100 | 236 | 3.0 | 10.0 | 0.00 | 0.00 | 0.00 | 36 | 1013.6 |
| 20260831213540 | 100 | 242 | 4.0 | 10.0 | 0.00 | 0.00 | 0.00 | 36 | 1013.5 |
| 20260831213101 | 100 | 257 | 2.0 | 8.0 | 0.00 | 0.00 | 0.00 | 37 | 1013.4 |
| 20260831212540 | 101 | 241 | 4.0 | 8.0 | 0.00 | 0.00 | 0.00 | 37 | 1013.6 |
| 20260831212041 | 100 | 155 | 1.0 | 8.0 | 0.00 | 0.00 | 0.00 | 39 | 1013.6 |
| 20260831211609 | 100 | 237 | 1.0 | 9.0 | 0.00 | 0.00 | 0.00 | 40 | 1013.6 |
| 20260831211039 | 100 | 197 | 1.0 | 9.0 | 0.00 | 0.00 | 0.00 | 39 | 1013.7 |
| 20260831210543 | 100 | 167 | 2.0 | 9.0 | 0.00 | 0.00 | 0.00 | 39 | 1013.7 |
| 20260831210100 | 101 | 256 | 4.0 | 9.0 | 0.00 | 0.00 | 0.00 | 37 | 1013.7 |
| 20260831205543 | 100 | 236 | 3.0 | 9.0 | 0.00 | 0.00 | 0.00 | 38 | 1013.8 |
| 20260831205043 | 100 | 207 | 4.0 | 10.0 | 0.00 | 0.00 | 0.00 | 39 | 1013.8 |
| 20260831204553 | 100 | 216 | 3.0 | 10.0 | 0.00 | 0.00 | 0.00 | 38 | 1014.0 |
| 20260831204040 | 101 | 246 | 3.0 | 11.0 | 0.00 | 0.00 | 0.00 | 37 | 1013.8 |
| 20260831203541 | 100 | 290 | 2.0 | 11.0 | 0.00 | 0.00 | 0.00 | 38 | 1013.8 |
| 20260831203101 | 100 | 182 | 2.0 | 10.0 | 0.00 | 0.00 | 0.00 | 39 | 1013.9 |
| 20260831202539 | 101 | 171 | 3.0 | 10.0 | 0.00 | 0.00 | 0.00 | 39 | 1013.9 |
| 20260831202042 | 101 | 255 | 4.0 | 12.0 | 0.00 | 0.00 | 0.00 | 37 | 1014.0 |
| 20260831201602 | 100 | 194 | 3.0 | 12.0 | 0.00 | 0.00 | 0.00 | 37 | 1014.0 |
| 20260831201045 | 100 | 193 | 1.0 | 8.0 | 0.00 | 0.00 | 0.00 | 37 | 1014.0 |
| 20260831200541 | 100 | 170 | 0.0 | 7.0 | 0.00 | 0.00 | 0.00 | 40 | 1014.0 |
| 20260831200100 | 100 | 153 | 2.0 | 10.0 | 0.00 | 0.00 | 0.00 | 37 | 1014.0 |
| 20260831195542 | 100 | 145 | 3.0 | 10.0 | 0.00 | 0.00 | 0.00 | 37 | 1014.0 |
| 20260831195044 | 100 | 179 | 4.0 | 12.0 | 0.00 | 0.00 | 0.00 | 36 | 1014.2 |
| 20260831194615 | 100 | 208 | 4.0 | 12.0 | 0.00 | 0.00 | 0.00 | 36 | 1014.2 |
| 20260831194042 | 101 | 225 | 4.0 | 12.0 | 0.00 | 0.00 | 0.00 | 37 | 1014.2 |
| 20260831193544 | 100 | 178 | 2.0 | 11.0 | 0.00 | 0.00 | 0.00 | 37 | 1014.2 |
| 20260831193103 | 100 | 203 | 4.0 | 11.0 | 0.00 | 0.00 | 0.00 | 37 | 1014.1 |
| 20260831192540 | 99 | 266 | 4.0 | 10.0 | 0.00 | 0.00 | 0.00 | 38 | 1014.3 |
| 20260831192040 | 99 | 208 | 5.0 | 10.0 | 0.00 | 0.00 | 0.00 | 38 | 1014.2 |
| 20260831191559 | 100 | 273 | 3.0 | 9.0 | 0.00 | 0.00 | 0.00 | 39 | 1014.2 |
| 20260831191042 | 100 | 243 | 2.0 | 8.0 | 0.00 | 0.00 | 0.00 | 39 | 1014.3 |
| 20260831190543 | 99 | 221 | 2.0 | 9.0 | 0.00 | 0.00 | 0.00 | 40 | 1014.3 |
| 20260831190130 | 99 | 222 | 2.0 | 11.0 | 0.00 | 0.00 | 0.00 | 40 | 1014.3 |
| 20260831185540 | 99 | 261 | 3.0 | 11.0 | 0.00 | 0.00 | 0.00 | 39 | 1014.4 |
| 20260831185044 | 98 | 252 | 1.0 | 9.0 | 0.00 | 0.00 | 0.00 | 40 | 1014.2 |
| 20260831184556 | 98 | 153 | 4.0 | 10.0 | 0.00 | 0.00 | 0.00 | 39 | 1014.4 |
| 20260831184040 | 98 | 252 | 3.0 | 11.0 | 0.00 | 0.00 | 0.00 | 40 | 1014.3 |
| 20260831183539 | 98 | 182 | 3.0 | 11.0 | 0.00 | 0.00 | 0.00 | 41 | 1014.3 |
| 20260831183104 | 98 | 213 | 2.0 | 11.0 | 0.00 | 0.00 | 0.00 | 41 | 1014.4 |
| 20260831182543 | 98 | 222 | 4.0 | 11.0 | 0.00 | 0.00 | 0.00 | 41 | 1014.4 |
| 20260831182040 | 98 | 281 | 2.0 | 7.0 | 0.00 | 0.00 | 0.00 | 42 | 1014.5 |
| 20260831181600 | 98 | 242 | 2.0 | 8.0 | 0.00 | 0.00 | 0.00 | 42 | 1014.7 |
| 20260831181040 | 97 | 0 | 2.0 | 9.0 | 0.00 | 0.00 | 0.00 | 44 | 1014.5 |
| 20260831180541 | 96 | 153 | 1.0 | 10.0 | 0.00 | 0.00 | 0.00 | 44 | 1014.6 |
| 20260831175543 | 97 | 192 | 3.0 | 8.0 | 0.00 | 0.00 | 0.00 | 42 | 1014.7 |
| 20260831175043 | 97 | 220 | 2.0 | 8.0 | 0.00 | 0.00 | 0.00 | 43 | 1014.7 |
| 20260831174605 | 96 | 228 | 2.0 | 8.0 | 0.00 | 0.00 | 0.00 | 43 | 1014.7 |
| 20260831174041 | 96 | 185 | 1.0 | 7.0 | 0.00 | 0.00 | 0.00 | 43 | 1014.8 |
| 20260831173540 | 96 | 213 | 3.0 | 8.0 | 0.00 | 0.00 | 0.00 | 43 | 1014.7 |
| 20260831173102 | 96 | 196 | 2.0 | 8.0 | 0.00 | 0.00 | 0.00 | 44 | 1014.8 |
| 20260831172540 | 95 | 221 | 2.0 | 11.0 | 0.00 | 0.00 | 0.00 | 45 | 1014.9 |
| 20260831172040 | 95 | 269 | 2.0 | 11.0 | 0.00 | 0.00 | 0.00 | 45 | 1014.9 |
| 20260831171603 | 95 | 273 | 2.0 | 8.0 | 0.00 | 0.00 | 0.00 | 43 | 1015.0 |
| 20260831171043 | 95 | 234 | 3.0 | 10.0 | 0.00 | 0.00 | 0.00 | 45 | 1015.0 |
| 20260831170544 | 94 | 188 | 2.0 | 10.0 | 0.00 | 0.00 | 0.00 | 47 | 1015.1 |
| 20260831170106 | 93 | 202 | 3.0 | 11.0 | 0.00 | 0.00 | 0.00 | 47 | 1015.1 |
| 20260831165539 | 94 | 136 | 3.0 | 11.0 | 0.00 | 0.00 | 0.00 | 47 | 1015.0 |
| 20260831165043 | 94 | 233 | 3.0 | 7.0 | 0.00 | 0.00 | 0.00 | 46 | 1015.0 |
| 20260831164555 | 93 | 269 | 1.0 | 7.0 | 0.00 | 0.00 | 0.00 | 49 | 1015.2 |
| 20260831164043 | 92 | 146 | 2.0 | 9.0 | 0.00 | 0.00 | 0.00 | 50 | 1015.2 |
| 20260831163544 | 93 | 190 | 3.0 | 9.0 | 0.00 | 0.00 | 0.00 | 50 | 1015.1 |
| 20260831163100 | 92 | 192 | 2.0 | 8.0 | 0.00 | 0.00 | 0.00 | 51 | 1015.1 |
| 20260831162543 | 92 | 221 | 1.0 | 8.0 | 0.00 | 0.00 | 0.00 | 50 | 1015.2 |
| 20260831162044 | 91 | 178 | 3.0 | 8.0 | 0.00 | 0.00 | 0.00 | 51 | 1015.2 |
| 20260831161604 | 91 | 174 | 4.0 | 8.0 | 0.00 | 0.00 | 0.00 | 49 | 1015.3 |
| 20260831161048 | 91 | 149 | 2.0 | 9.0 | 0.00 | 0.00 | 0.00 | 50 | 1015.3 |
| 20260831160543 | 91 | 227 | 1.0 | 9.0 | 0.00 | 0.00 | 0.00 | 51 | 1015.4 |
| 20260831160105 | 90 | 279 | 4.0 | 9.0 | 0.00 | 0.00 | 0.00 | 50 | 1015.4 |
| 20260831155542 | 90 | 265 | 3.0 | 9.0 | 0.00 | 0.00 | 0.00 | 50 | 1015.5 |
| 20260831155043 | 90 | 197 | 1.0 | 10.0 | 0.00 | 0.00 | 0.00 | 53 | 1015.4 |
| 20260831154630 | 89 | 240 | 5.0 | 10.0 | 0.00 | 0.00 | 0.00 | 52 | 1015.5 |
| 20260831154042 | 89 | 228 | 4.0 | 9.0 | 0.00 | 0.00 | 0.00 | 52 | 1015.3 |
| 20260831153542 | 89 | 215 | 1.0 | 11.0 | 0.00 | 0.00 | 0.00 | 54 | 1015.4 |
| 20260831153104 | 88 | 204 | 3.0 | 11.0 | 0.00 | 0.00 | 0.00 | 53 | 1015.3 |
| 20260831152540 | 87 | 265 | 3.0 | 8.0 | 0.00 | 0.00 | 0.00 | 54 | 1015.3 |
| 20260831152040 | 86 | 275 | 3.0 | 10.0 | 0.00 | 0.00 | 0.00 | 56 | 1015.3 |
| 20260831151613 | 86 | 247 | 3.0 | 10.0 | 0.00 | 0.00 | 0.00 | 57 | 1015.3 |
| 20260831151040 | 85 | 250 | 3.0 | 9.0 | 0.00 | 0.00 | 0.00 | 57 | 1015.4 |
| 20260831150540 | 85 | 241 | 4.0 | 12.0 | 0.00 | 0.00 | 0.00 | 57 | 1015.5 |
| 20260831150059 | 84 | 240 | 2.0 | 12.0 | 0.00 | 0.00 | 0.00 | 59 | 1015.4 |
| 20260831145539 | 83 | 202 | 3.0 | 10.0 | 0.00 | 0.00 | 0.00 | 59 | 1015.5 |
| 20260831145041 | 83 | 0 | 2.0 | 9.0 | 0.00 | 0.00 | 0.00 | 60 | 1015.6 |
| 20260831144602 | 83 | 0 | 2.0 | 9.0 | 0.00 | 0.00 | 0.00 | 59 | 1015.4 |
| 20260831144044 | 83 | 208 | 3.0 | 9.0 | 0.00 | 0.00 | 0.00 | 58 | 1015.4 |
| 20260831143544 | 83 | 228 | 3.0 | 9.0 | 0.00 | 0.00 | 0.00 | 59 | 1015.4 |
| 20260831143108 | 83 | 224 | 1.0 | 9.0 | 0.00 | 0.00 | 0.00 | 60 | 1015.5 |
| 20260831142541 | 82 | 221 | 3.0 | 9.0 | 0.00 | 0.00 | 0.00 | 59 | 1015.7 |
| 20260831142042 | 82 | 239 | 2.0 | 7.0 | 0.00 | 0.00 | 0.00 | 59 | 1015.6 |
| 20260831141604 | 83 | 238 | 3.0 | 9.0 | 0.00 | 0.00 | 0.00 | 58 | 1015.6 |
| 20260831141040 | 83 | 219 | 4.0 | 10.0 | 0.00 | 0.00 | 0.00 | 59 | 1015.6 |
| 20260831140540 | 82 | 202 | 4.0 | 11.0 | 0.00 | 0.00 | 0.00 | 59 | 1015.7 |
| 20260831140058 | 82 | 273 | 3.0 | 11.0 | 0.00 | 0.00 | 0.00 | 59 | 1015.7 |
| 20260831135540 | 81 | 213 | 4.0 | 11.0 | 0.00 | 0.00 | 0.00 | 60 | 1015.6 |
| 20260831135040 | 81 | 205 | 4.0 | 11.0 | 0.00 | 0.00 | 0.00 | 61 | 1015.5 |
| 20260831134604 | 80 | 207 | 4.0 | 10.0 | 0.00 | 0.00 | 0.00 | 61 | 1015.4 |
| 20260831134039 | 80 | 222 | 4.0 | 11.0 | 0.00 | 0.00 | 0.00 | 62 | 1015.3 |
| 20260831133542 | 79 | 193 | 2.0 | 12.0 | 0.00 | 0.00 | 0.00 | 63 | 1015.2 |
| 20260831133102 | 79 | 196 | 5.0 | 12.0 | 0.00 | 0.00 | 0.00 | 64 | 1015.2 |
| 20260831132540 | 79 | 225 | 2.0 | 12.0 | 0.00 | 0.00 | 0.00 | 64 | 1015.3 |
| 20260831132043 | 78 | 250 | 4.0 | 13.0 | 0.00 | 0.00 | 0.00 | 64 | 1015.2 |
| 20260831131610 | 78 | 197 | 4.0 | 13.0 | 0.00 | 0.00 | 0.00 | 65 | 1015.2 |
| 20260831131040 | 77 | 260 | 4.0 | 11.0 | 0.00 | 0.00 | 0.00 | 65 | 1015.1 |
| 20260831130541 | 77 | 215 | 3.0 | 10.0 | 0.00 | 0.00 | 0.00 | 66 | 1015.2 |
| 20260831130129 | 77 | 232 | 5.0 | 10.0 | 0.00 | 0.00 | 0.00 | 67 | 1015.1 |
| 20260831125540 | 76 | 196 | 2.0 | 7.0 | 0.00 | 0.00 | 0.00 | 68 | 1015.1 |
| 20260831125045 | 76 | 225 | 2.0 | 8.0 | 0.00 | 0.00 | 0.00 | 68 | 1014.8 |
| 20260831124605 | 76 | 221 | 2.0 | 9.0 | 0.00 | 0.00 | 0.00 | 68 | 1014.9 |
| 20260831124039 | 76 | 194 | 3.0 | 9.0 | 0.00 | 0.00 | 0.00 | 67 | 1014.9 |
| 20260831123540 | 76 | 186 | 3.0 | 9.0 | 0.00 | 0.00 | 0.00 | 67 | 1015.0 |
| 20260831123103 | 76 | 231 | 2.0 | 7.0 | 0.00 | 0.00 | 0.00 | 67 | 1015.0 |
| 20260831122540 | 76 | 202 | 3.0 | 7.0 | 0.00 | 0.00 | 0.00 | 67 | 1015.1 |
| 20260831122041 | 76 | 188 | 0.0 | 5.0 | 0.00 | 0.00 | 0.00 | 68 | 1014.9 |
| 20260831121609 | 76 | 0 | 1.0 | 6.0 | 0.00 | 0.00 | 0.00 | 68 | 1014.8 |
| 20260831121040 | 76 | 186 | 2.0 | 6.0 | 0.00 | 0.00 | 0.00 | 68 | 1014.8 |
| 20260831120540 | 76 | 190 | 1.0 | 6.0 | 0.00 | 0.00 | 0.00 | 67 | 1014.7 |
| 20260831120054 | 76 | 179 | 2.0 | 5.0 | 0.00 | 0.00 | 0.00 | 68 | 1014.6 |
| 20260831115539 | 76 | 0 | 1.0 | 4.0 | 0.00 | 0.00 | 0.00 | 68 | 1014.6 |
| 20260831115040 | 76 | 0 | 0.0 | 4.0 | 0.00 | 0.00 | 0.00 | 68 | 1014.5 |
| 20260831114607 | 76 | 0 | 0.0 | 6.0 | 0.00 | 0.00 | 0.00 | 68 | 1014.5 |
| 20260831114040 | 76 | 265 | 1.0 | 6.0 | 0.00 | 0.00 | 0.00 | 67 | 1014.3 |
| 20260831113543 | 76 | 160 | 0.0 | 4.0 | 0.00 | 0.00 | 0.00 | 67 | 1014.4 |
| 20260831113103 | 76 | 242 | 0.0 | 5.0 | 0.00 | 0.00 | 0.00 | 66 | 1014.3 |
| 20260831112541 | 77 | 0 | 1.0 | 5.0 | 0.00 | 0.00 | 0.00 | 66 | 1014.2 |
| 20260831112040 | 77 | 242 | 1.0 | 7.0 | 0.00 | 0.00 | 0.00 | 65 | 1014.2 |
| 20260831111600 | 77 | 240 | 1.0 | 7.0 | 0.00 | 0.00 | 0.00 | 65 | 1014.2 |
| 20260831111040 | 77 | 198 | 1.0 | 7.0 | 0.00 | 0.00 | 0.00 | 65 | 1014.1 |
| 20260831110541 | 77 | 196 | 2.0 | 8.0 | 0.00 | 0.00 | 0.00 | 65 | 1014.0 |
| 20260831110059 | 77 | 217 | 1.0 | 8.0 | 0.00 | 0.00 | 0.00 | 65 | 1013.9 |
| 20260831105540 | 77 | 159 | 1.0 | 9.0 | 0.00 | 0.00 | 0.00 | 64 | 1013.9 |
| 20260831105045 | 77 | 226 | 2.0 | 9.0 | 0.00 | 0.00 | 0.00 | 64 | 1013.8 |
| 20260831104607 | 78 | 201 | 1.0 | 9.0 | 0.00 | 0.00 | 0.00 | 64 | 1013.8 |
| 20260831104040 | 78 | 130 | 2.0 | 7.0 | 0.00 | 0.00 | 0.00 | 64 | 1014.0 |
| 20260831103543 | 78 | 0 | 1.0 | 7.0 | 0.00 | 0.00 | 0.00 | 63 | 1014.1 |
| 20260831103104 | 78 | 0 | 1.0 | 7.0 | 0.00 | 0.00 | 0.00 | 63 | 1014.1 |
| 20260831102540 | 78 | 249 | 1.0 | 6.0 | 0.00 | 0.00 | 0.00 | 63 | 1013.9 |
| 20260831102040 | 78 | 216 | 0.0 | 6.0 | 0.00 | 0.00 | 0.00 | 63 | 1013.9 |
| 20260831101608 | 79 | 0 | 0.0 | 6.0 | 0.00 | 0.00 | 0.00 | 62 | 1013.8 |
| 20260831101040 | 79 | 217 | 0.0 | 3.0 | 0.00 | 0.00 | 0.00 | 62 | 1013.8 |
| 20260831100539 | 79 | 0 | 0.0 | 3.0 | 0.00 | 0.00 | 0.00 | 62 | 1013.7 |
| 20260831100108 | 79 | 0 | 0.0 | 5.0 | 0.00 | 0.00 | 0.00 | 61 | 1013.6 |
| 20260831095541 | 79 | 0 | 0.0 | 5.0 | 0.00 | 0.00 | 0.00 | 61 | 1013.6 |
| 20260831095040 | 80 | 155 | 0.0 | 7.0 | 0.00 | 0.00 | 0.00 | 60 | 1013.5 |
| 20260831094632 | 80 | 241 | 1.0 | 7.0 | 0.00 | 0.00 | 0.00 | 60 | 1013.3 |
| 20260831094046 | 80 | 194 | 0.0 | 7.0 | 0.00 | 0.00 | 0.00 | 59 | 1013.2 |
| 20260831093545 | 80 | 248 | 1.0 | 7.0 | 0.00 | 0.00 | 0.00 | 58 | 1013.3 |
| 20260831093104 | 81 | 190 | 0.0 | 7.0 | 0.00 | 0.00 | 0.00 | 58 | 1013.0 |
| 20260831092545 | 81 | 160 | 2.0 | 10.0 | 0.00 | 0.00 | 0.00 | 57 | 1012.8 |
| 20260831092044 | 81 | 175 | 3.0 | 14.0 | 0.00 | 0.00 | 0.00 | 57 | 1012.7 |
| 20260831091615 | 81 | 236 | 2.0 | 14.0 | 0.00 | 0.00 | 0.00 | 56 | 1012.6 |
| 20260831091044 | 82 | 241 | 2.0 | 14.0 | 0.00 | 0.00 | 0.00 | 56 | 1012.6 |
| 20260831090546 | 82 | 206 | 3.0 | 11.0 | 0.00 | 0.00 | 0.00 | 56 | 1012.5 |
| 20260831090054 | 82 | 264 | 3.0 | 11.0 | 0.00 | 0.00 | 0.00 | 56 | 1012.3 |
| 20260831085544 | 82 | 190 | 2.0 | 10.0 | 0.00 | 0.00 | 0.00 | 55 | 1012.4 |
| 20260831085044 | 83 | 200 | 3.0 | 9.0 | 0.00 | 0.00 | 0.00 | 54 | 1012.3 |
| 20260831084616 | 83 | 167 | 4.0 | 13.0 | 0.00 | 0.00 | 0.00 | 54 | 1012.3 |
| 20260831084043 | 83 | 184 | 4.0 | 13.0 | 0.00 | 0.00 | 0.00 | 54 | 1012.2 |
| 20260831083543 | 83 | 241 | 2.0 | 12.0 | 0.00 | 0.00 | 0.00 | 54 | 1012.3 |
| 20260831083104 | 83 | 223 | 4.0 | 12.0 | 0.00 | 0.00 | 0.00 | 53 | 1012.3 |
| 20260831082544 | 83 | 214 | 4.0 | 11.0 | 0.00 | 0.00 | 0.00 | 53 | 1012.3 |
| 20260831082044 | 83 | 216 | 5.0 | 11.0 | 0.00 | 0.00 | 0.00 | 53 | 1012.3 |
| 20260831081605 | 83 | 238 | 3.0 | 11.0 | 0.00 | 0.00 | 0.00 | 53 | 1012.1 |
| 20260831081044 | 84 | 165 | 4.0 | 11.0 | 0.00 | 0.00 | 0.00 | 52 | 1012.2 |
| 20260831080544 | 84 | 199 | 3.0 | 12.0 | 0.00 | 0.00 | 0.00 | 52 | 1012.2 |
| 20260831080103 | 84 | 196 | 5.0 | 12.0 | 0.00 | 0.00 | 0.00 | 52 | 1012.2 |
| 20260831075543 | 84 | 224 | 5.0 | 12.0 | 0.00 | 0.00 | 0.00 | 52 | 1012.2 |
| 20260831075047 | 84 | 232 | 4.0 | 12.0 | 0.00 | 0.00 | 0.00 | 52 | 1012.2 |
| 20260831074605 | 84 | 228 | 4.0 | 12.0 | 0.00 | 0.00 | 0.00 | 52 | 1012.2 |
| 20260831074043 | 84 | 232 | 4.0 | 11.0 | 0.00 | 0.00 | 0.00 | 52 | 1012.3 |
| 20260831073544 | 84 | 234 | 3.0 | 11.0 | 0.00 | 0.00 | 0.00 | 52 | 1012.4 |
| 20260831073104 | 84 | 196 | 4.0 | 11.0 | 0.00 | 0.00 | 0.00 | 52 | 1012.4 |
| 20260831072546 | 84 | 252 | 3.0 | 13.0 | 0.00 | 0.00 | 0.00 | 52 | 1012.5 |
| 20260831072043 | 84 | 231 | 4.0 | 13.0 | 0.00 | 0.00 | 0.00 | 52 | 1012.4 |
| 20260831071615 | 84 | 226 | 4.0 | 10.0 | 0.00 | 0.00 | 0.00 | 52 | 1012.6 |
| 20260831071047 | 84 | 223 | 4.0 | 11.0 | 0.00 | 0.00 | 0.00 | 52 | 1012.5 |
| 20260831070544 | 84 | 226 | 4.0 | 12.0 | 0.00 | 0.00 | 0.00 | 52 | 1012.5 |
| 20260831070107 | 84 | 220 | 4.0 | 13.0 | 0.00 | 0.00 | 0.00 | 52 | 1012.5 |
| 20260831065544 | 84 | 238 | 5.0 | 13.0 | 0.00 | 0.00 | 0.00 | 52 | 1012.6 |
| 20260831065044 | 84 | 202 | 5.0 | 13.0 | 0.00 | 0.00 | 0.00 | 51 | 1012.5 |
| 20260831064613 | 85 | 231 | 4.0 | 12.0 | 0.00 | 0.00 | 0.00 | 51 | 1012.5 |
| 20260831064044 | 85 | 230 | 4.0 | 13.0 | 0.00 | 0.00 | 0.00 | 51 | 1012.4 |
| 20260831063544 | 85 | 155 | 4.0 | 13.0 | 0.00 | 0.00 | 0.00 | 51 | 1012.5 |
| 20260831063117 | 85 | 169 | 3.0 | 12.0 | 0.00 | 0.00 | 0.00 | 51 | 1012.5 |
| 20260831062544 | 85 | 188 | 4.0 | 12.0 | 0.00 | 0.00 | 0.00 | 51 | 1012.4 |
| 20260831062045 | 85 | 232 | 4.0 | 12.0 | 0.00 | 0.00 | 0.00 | 51 | 1012.3 |
| 20260831061604 | 85 | 205 | 4.0 | 12.0 | 0.00 | 0.00 | 0.00 | 51 | 1012.3 |
| 20260831061046 | 85 | 213 | 4.0 | 12.0 | 0.00 | 0.00 | 0.00 | 51 | 1012.3 |
| 20260831060541 | 85 | 221 | 4.0 | 16.0 | 0.00 | 0.00 | 0.00 | 51 | 1012.1 |
| 20260831060115 | 85 | 221 | 4.0 | 16.0 | 0.00 | 0.00 | 0.00 | 51 | 1011.9 |
| 20260831055544 | 86 | 228 | 4.0 | 13.0 | 0.00 | 0.00 | 0.00 | 51 | 1012.0 |
| 20260831055044 | 86 | 184 | 4.0 | 13.0 | 0.00 | 0.00 | 0.00 | 51 | 1011.9 |
| 20260831054600 | 86 | 249 | 4.0 | 15.0 | 0.00 | 0.00 | 0.00 | 51 | 1011.8 |
| 20260831054049 | 86 | 200 | 5.0 | 15.0 | 0.00 | 0.00 | 0.00 | 51 | 1011.7 |
| 20260831053544 | 86 | 223 | 4.0 | 12.0 | 0.00 | 0.00 | 0.00 | 51 | 1011.6 |
| 20260831053105 | 86 | 180 | 2.0 | 19.0 | 0.00 | 0.00 | 0.00 | 51 | 1011.6 |
| 20260831052544 | 86 | 217 | 6.0 | 19.0 | 0.00 | 0.00 | 0.00 | 51 | 1011.5 |
| 20260831052045 | 85 | 224 | 3.0 | 10.0 | 0.00 | 0.00 | 0.00 | 51 | 1011.6 |
| 20260831051614 | 85 | 192 | 2.0 | 10.0 | 0.00 | 0.00 | 0.00 | 51 | 1011.6 |
| 20260831051044 | 86 | 134 | 5.0 | 10.0 | 0.00 | 0.00 | 0.00 | 51 | 1011.5 |
| 20260831050543 | 85 | 213 | 4.0 | 10.0 | 0.00 | 0.00 | 0.00 | 51 | 1011.6 |
| 20260831050113 | 86 | 214 | 2.0 | 10.0 | 0.00 | 0.00 | 0.00 | 51 | 1011.5 |
| 20260831045544 | 86 | 257 | 2.0 | 10.0 | 0.00 | 0.00 | 0.00 | 51 | 1011.6 |
| 20260831045044 | 86 | 220 | 3.0 | 10.0 | 0.00 | 0.00 | 0.00 | 51 | 1011.5 |
| 20260831044557 | 86 | 180 | 3.0 | 13.0 | 0.00 | 0.00 | 0.00 | 50 | 1011.4 |
| 20260831044047 | 86 | 234 | 4.0 | 13.0 | 0.00 | 0.00 | 0.00 | 50 | 1011.4 |
| 20260831043543 | 86 | 202 | 4.0 | 12.0 | 0.00 | 0.00 | 0.00 | 50 | 1011.5 |
| 20260831043103 | 86 | 215 | 3.0 | 12.0 | 0.00 | 0.00 | 0.00 | 50 | 1011.5 |
| 20260831042543 | 86 | 211 | 4.0 | 11.0 | 0.00 | 0.00 | 0.00 | 50 | 1011.4 |
| 20260831042042 | 87 | 140 | 3.0 | 11.0 | 0.00 | 0.00 | 0.00 | 49 | 1011.3 |
| 20260831041600 | 87 | 209 | 4.0 | 11.0 | 0.00 | 0.00 | 0.00 | 49 | 1011.3 |
| 20260831041044 | 87 | 231 | 3.0 | 12.0 | 0.00 | 0.00 | 0.00 | 49 | 1011.2 |
| 20260831040540 | 87 | 171 | 4.0 | 14.0 | 0.00 | 0.00 | 0.00 | 48 | 1011.2 |
| 20260831040104 | 87 | 213 | 5.0 | 14.0 | 0.00 | 0.00 | 0.00 | 48 | 1011.3 |
| 20260831035545 | 87 | 165 | 5.0 | 10.0 | 0.00 | 0.00 | 0.00 | 48 | 1011.2 |
| 20260831035045 | 88 | 138 | 3.0 | 17.0 | 0.00 | 0.00 | 0.00 | 48 | 1011.2 |
| 20260831034601 | 88 | 207 | 3.0 | 17.0 | 0.00 | 0.00 | 0.00 | 47 | 1011.2 |
| 20260831034045 | 88 | 153 | 4.0 | 12.0 | 0.00 | 0.00 | 0.00 | 47 | 1011.2 |
| 20260831033546 | 88 | 249 | 4.0 | 13.0 | 0.00 | 0.00 | 0.00 | 47 | 1011.1 |
| 20260831033103 | 88 | 207 | 5.0 | 15.0 | 0.00 | 0.00 | 0.00 | 47 | 1011.2 |
| 20260831032541 | 88 | 192 | 4.0 | 15.0 | 0.00 | 0.00 | 0.00 | 47 | 1011.1 |
| 20260831032043 | 88 | 306 | 4.0 | 13.0 | 0.00 | 0.00 | 0.00 | 46 | 1011.1 |
| 20260831031558 | 88 | 277 | 4.0 | 12.0 | 0.00 | 0.00 | 0.00 | 46 | 1011.0 |
| 20260831031045 | 88 | 155 | 4.0 | 12.0 | 0.00 | 0.00 | 0.00 | 46 | 1011.0 |
| 20260831030545 | 88 | 173 | 2.0 | 11.0 | 0.00 | 0.00 | 0.00 | 46 | 1010.9 |
| 20260831030056 | 88 | 228 | 4.0 | 11.0 | 0.00 | 0.00 | 0.00 | 46 | 1010.8 |
| 20260831025545 | 88 | 146 | 2.0 | 10.0 | 0.00 | 0.00 | 0.00 | 47 | 1011.0 |
| 20260831025044 | 88 | 209 | 3.0 | 10.0 | 0.00 | 0.00 | 0.00 | 47 | 1010.8 |
| 20260831024602 | 88 | 184 | 2.0 | 9.0 | 0.00 | 0.00 | 0.00 | 47 | 1010.9 |
| 20260831024043 | 88 | 214 | 4.0 | 10.0 | 0.00 | 0.00 | 0.00 | 47 | 1010.9 |
| 20260831023543 | 88 | 184 | 3.0 | 10.0 | 0.00 | 0.00 | 0.00 | 47 | 1010.7 |
| 20260831023109 | 88 | 159 | 3.0 | 12.0 | 0.00 | 0.00 | 0.00 | 47 | 1010.8 |
| 20260831022540 | 89 | 199 | 3.0 | 14.0 | 0.00 | 0.00 | 0.00 | 47 | 1010.8 |
| 20260831022040 | 89 | 202 | 3.0 | 14.0 | 0.00 | 0.00 | 0.00 | 47 | 1010.7 |
| 20260831021601 | 89 | 311 | 2.0 | 9.0 | 0.00 | 0.00 | 0.00 | 47 | 1010.7 |
| 20260831021044 | 89 | 206 | 3.0 | 13.0 | 0.00 | 0.00 | 0.00 | 47 | 1010.8 |
| 20260831020544 | 89 | 193 | 3.0 | 13.0 | 0.00 | 0.00 | 0.00 | 46 | 1010.6 |
| 20260831020115 | 89 | 213 | 2.0 | 11.0 | 0.00 | 0.00 | 0.00 | 47 | 1010.5 |
| 20260831015543 | 89 | 219 | 4.0 | 11.0 | 0.00 | 0.00 | 0.00 | 46 | 1010.3 |
| 20260831015043 | 89 | 159 | 3.0 | 9.0 | 0.00 | 0.00 | 0.00 | 47 | 1010.3 |
| 20260831014600 | 89 | 231 | 2.0 | 9.0 | 0.00 | 0.00 | 0.00 | 47 | 1010.3 |
| 20260831014043 | 90 | 181 | 3.0 | 8.0 | 0.00 | 0.00 | 0.00 | 47 | 1010.2 |
| 20260831013543 | 90 | 206 | 2.0 | 8.0 | 0.00 | 0.00 | 0.00 | 47 | 1010.2 |
| 20260831013100 | 90 | 0 | 3.0 | 11.0 | 0.00 | 0.00 | 0.00 | 46 | 1010.2 |
| 20260831012540 | 90 | 0 | 3.0 | 11.0 | 0.00 | 0.00 | 0.00 | 47 | 1010.2 |
| 20260831012046 | 90 | 148 | 2.0 | 7.0 | 0.00 | 0.00 | 0.00 | 46 | 1010.2 |
| 20260831011605 | 91 | 222 | 1.0 | 7.0 | 0.00 | 0.00 | 0.00 | 47 | 1010.2 |
| 20260831011047 | 90 | 131 | 2.0 | 7.0 | 0.00 | 0.00 | 0.00 | 47 | 1010.1 |
| 20260831010544 | 91 | 161 | 2.0 | 6.0 | 0.00 | 0.00 | 0.00 | 47 | 1010.1 |
| 20260831005546 | 91 | 0 | 1.0 | 5.0 | 0.00 | 0.00 | 0.00 | 47 | 1010.1 |
| 20260831005043 | 91 | 205 | 1.0 | 5.0 | 0.00 | 0.00 | 0.00 | 47 | 1010.0 |
| 20260831004601 | 92 | 0 | 0.0 | 5.0 | 0.00 | 0.00 | 0.00 | 45 | 1010.1 |
| 20260831004047 | 93 | 0 | 0.0 | 8.0 | 0.00 | 0.00 | 0.00 | 45 | 1010.1 |
| 20260831003540 | 93 | 0 | 2.0 | 8.0 | 0.00 | 0.00 | 0.00 | 43 | 1010.2 |
| 20260831003102 | 94 | 207 | 1.0 | 7.0 | 0.00 | 0.00 | 0.00 | 43 | 1010.1 |
| 20260831002543 | 94 | 0 | 1.0 | 7.0 | 0.00 | 0.00 | 0.00 | 43 | 1010.1 |
| 20260831002043 | 94 | 198 | 1.0 | 6.0 | 0.00 | 0.00 | 0.00 | 43 | 1010.2 |
| 20260831001605 | 95 | 170 | 0.0 | 7.0 | 0.00 | 0.00 | 0.00 | 42 | 1010.2 |
| 20260831001044 | 95 | 163 | 2.0 | 8.0 | 0.00 | 0.00 | 0.00 | 41 | 1010.1 |
| 20260831000543 | 95 | 232 | 1.0 | 8.0 | 0.00 | 0.00 | 0.00 | 42 | 1010.1 |
| 20260831000105 | 96 | 142 | 2.0 | 6.0 | 0.00 | 0.00 | 0.00 | 41 | 1010.1 |
| 20260830235544 | 96 | 296 | 1.0 | 7.0 | 0.00 | 0.00 | 0.00 | 41 | 1010.1 |
| 20260830235046 | 96 | 205 | 1.0 | 7.0 | 0.00 | 0.00 | 0.00 | 41 | 1010.2 |
| 20260830234612 | 97 | 182 | 1.0 | 7.0 | 0.00 | 0.00 | 0.00 | 40 | 1010.0 |
| 20260830234047 | 97 | 165 | 1.0 | 6.0 | 0.00 | 0.00 | 0.00 | 39 | 1010.0 |
| 20260830233543 | 97 | 0 | 1.0 | 10.0 | 0.00 | 0.00 | 0.00 | 38 | 1010.0 |
| 20260830233100 | 98 | 155 | 2.0 | 10.0 | 0.00 | 0.00 | 0.00 | 38 | 1010.0 |
| 20260830232543 | 98 | 174 | 3.0 | 10.0 | 0.00 | 0.00 | 0.00 | 37 | 1010.0 |
| 20260830232045 | 98 | 215 | 4.0 | 9.0 | 0.00 | 0.00 | 0.00 | 37 | 1010.0 |
| 20260830231607 | 99 | 168 | 1.0 | 10.0 | 0.00 | 0.00 | 0.00 | 37 | 1009.9 |
| 20260830231044 | 99 | 199 | 4.0 | 10.0 | 0.00 | 0.00 | 0.00 | 36 | 1009.9 |
| 20260830230545 | 99 | 211 | 4.0 | 10.0 | 0.00 | 0.00 | 0.00 | 36 | 1010.0 |
| 20260830230058 | 99 | 196 | 2.0 | 10.0 | 0.00 | 0.00 | 0.00 | 37 | 1009.9 |